Tracking 20083 objects as of 9-Dec-2019
HD Live streaming from Space Station
objects crossing your sky now

FENGYUN 1C DEB

Track FENGYUN 1C DEB now!
10-day predictions


NORAD ID: 31931
Int'l Code: 1999-025CMG
Perigee: 794.1 km
Apogee: 1,444.8 km
Inclination: 97.8 °
Period: 107.5 minutes
Semi major axis: 7490 km
RCS: 0.0158 m2 (small)
Launch date: May 10, 1999
Source: People's Republic of China (PRC)
Launch site: Taiyaun Space Center, China (TSC)

Note: This is SATELLITE DEBRIS
aabbcc
Your satellite tracking list
Your tracking list is empty




NASA's NSSDC Master Catalog

Two Line Element Set (TLE):
1 31931U 99025CMG 19340.88596710 +.00000138 +00000-0 +18058-3 0  9990
2 31931 097.8131 035.0260 0434374 202.3946 155.7706 13.39178687357802
Source of the keplerian elements: AFSPC